Home > Weather > Douala > Past weeks

Flag for Cameroon Weather for the Past 2 Weeks in Douala, Cameroon

Now
81 °F

Thunderstorms. Partly sunny.


Feels Like: 88 °F
Forecast: 77 / 90 °F
Wind: 1 mph from Southeast

Location: Douala Obs.

Current Time: May 1, 2016 at 7:50:16 AM

Latest Report: May 1, 2016 at 7:00 AM


Visibility: N/A

Pressure: 29.80 "Hg

Humidity: 94%

Dew Point: 79 °F

Location of DoualaLocation

Historic Weather in Douala — Graph

°F

Douala Temperature Yesterday

Maximum temperature yesterday: 93 °F (at 1:00 PM)
Minimum temperature yesterday: 77 °F (at 5:00 AM)
Average temperature yesterday: 84 °F

High & Low Weather Summary for the Past Weeks

 TemperatureHumidityPressure
High93 °F (Apr 19, 3:00 PM)100% (Apr 16, 6:00 AM)29.98 "Hg (Apr 16, 6:00 AM)
Low73 °F (Apr 20, 5:00 PM)56% (Apr 28, 4:00 PM)29.68 "Hg (Apr 28, 5:00 PM)
Average83 °F85%29.82 "Hg
* Reported Apr 16 6:00 AM — May 1 6:00 AM, Douala, Weather by CustomWeather, © 2016

Note: Actual official high and low records may vary slightly from our data, if they occured in-between our weather recording intervals... More about our weather records

Advertising

Douala Weather History for the Previous 24 Hours

Scroll right to see more
 ConditionsComfort  
Time TempWeatherWind HumidityBarometerVisibility
6:00 AM
Sun, May 1
81 °FThunderstorms. Passing clouds.5 mph94%29.74 "HgN/A
5:00 AM81 °FThunderstorms. Passing clouds.No wind94%29.74 "HgN/A
4:00 AM81 °FThunderstorms. Passing clouds.3 mph94%29.74 "HgN/A
3:00 AM81 °FThunderstorms. Passing clouds.3 mph94%29.74 "HgN/A
2:00 AM81 °FPassing clouds.No wind94%29.77 "HgN/A
1:00 AM82 °FPassing clouds.1 mph89%29.80 "HgN/A
12:00 AM82 °FPassing clouds.2 mph89%29.80 "HgN/A
11:00 PM
Sat, Apr 30
82 °FPassing clouds.No wind94%29.80 "HgN/A
10:00 PM84 °FPassing clouds.No wind84%29.83 "HgN/A
9:00 PM84 °FThunderstorms. Passing clouds.No wind84%29.83 "HgN/A
8:00 PM84 °FThunderstorms. Passing clouds.5 mph84%29.80 "HgN/A
7:00 PM86 °FThunderstorms. Passing clouds.7 mph75%29.74 "HgN/A
6:00 PM86 °FScattered clouds.6 mph75%29.74 "HgN/A
5:00 PM90 °FScattered clouds.12 mph67%29.71 "HgN/A
4:00 PM91 °FScattered clouds.14 mph63%29.71 "HgN/A
3:00 PM91 °FScattered clouds.9 mph63%29.74 "HgN/A
2:00 PM91 °FScattered clouds.8 mph63%29.77 "HgN/A
1:00 PM93 °FPartly sunny.9 mph59%29.80 "HgN/A
12:00 PM91 °FPartly sunny.8 mph63%29.83 "HgN/A
11:00 AM90 °FPartly sunny.6 mph71%29.86 "HgN/A
10:00 AM88 °FPartly sunny.5 mph75%29.86 "HgN/A
9:00 AM84 °FPartly sunny.3 mph79%29.86 "HgN/A
8:00 AM81 °FPartly sunny.2 mph100%29.86 "Hg4 mi
7:00 AM79 °FPartly sunny.No wind94%29.83 "HgN/A
Weather by CustomWeather, © 2016

See weather overviewHow to use our weather pages